Regional Weather Roundup
Issued by NWS

Home | Current Version | Previous Version | Text Only | Print | Product List | Glossary On
Versions: 1 2 3 4 5 6 7 8 9 10 11 12 13 14 15 16 17 18 19 20 21 22 23 24 25 26 27 28 29 30 31 32 33 34 35 36 37 38 39 40 41 42 43 44 45 46 47 48 49 50
000
ASUS45 KBOI 301610
RWRID

IDAHO REGIONAL WEATHER ROUNDUP
NATIONAL WEATHER SERVICE BOISE ID
1000 AM MDT TUE JUN 30 2015

NOTE: "FAIR" INDICATES FEW OR NO CLOUDS BELOW 12000 FEET
WITH NO SIGNIFICANT WEATHER AND/OR OBSTRUCTIONS TO VISIBILITY

IDZ012-014-301700-
SOUTHWEST IDAHO


CITY           SKY/WX    TMP DP  RH WIND       PRES   REMARKS
BOISE          SUNNY     83  58  42 W3        30.02R
CALDWELL       SUNNY     84  55  37 NW10      30.01F
$$

IDZ016-017-301700-
SOUTHCENTRAL IDAHO


CITY           SKY/WX    TMP DP  RH WIND       PRES   REMARKS
BURLEY         MOSUNNY   79  58  48 E5        30.10S
JEROME         CLOUDY    80  51  36 CALM      30.11R
TWIN FALLS     MOSUNNY   84  54  35 NW8       30.10R
$$

IDZ019>023-301700-
SOUTHEAST IDAHO


CITY           SKY/WX    TMP DP  RH WIND       PRES   REMARKS
IDAHO FALLS    CLOUDY    74  57  55 NE5       30.16R
POCATELLO      SUNNY     74  58  57 SW3       30.14S
REXBURG        PTSUNNY   72  56  57 E6        30.16F
$$

IDZ006-010-011-018-031-032-301700-
CENTRAL IDAHO MOUNTAINS


CITY           SKY/WX    TMP DP  RH WIND       PRES   REMARKS
MCCALL         SUNNY     78  53  41 NW6       30.17S
HAILEY         PTSUNNY   75  55  50 NW7       30.21S
STANLEY          N/A     71  51  49 CALM      30.28F
SALMON         SUNNY     72  61  68 CALM      30.14F
CHALLIS        SUNNY     75  53  46 CALM      30.19F
$$

IDZ002-004-006-007-026-301700-
NORTHERN IDAHO


CITY           SKY/WX    TMP DP  RH WIND       PRES   REMARKS
LEWISTON       SUNNY     84  60  44 CALM      30.00R
LOWELL           N/A     77  63  61 N3        30.01F
COEUR D`ALENE  SUNNY     75  61  60 N5        30.04S
MULLAN PASS    SUNNY     66  52  60 VRB7      30.23S
$$


USA.gov is the U.S. government's official web portal to all federal, state and local government web resources and services.